カタログに戻る

COURIER 1B

運用中軍事LEO
NORAD 58·PAYLOAD·🇺🇸 United States

打ち上げ Oct 4, 1960 から Cape Canaveral Space Force Station

Loading…

次のパス (今後24時間)

TLE

最新Source: Space-Track

元期: Sep 14, 2026, 09:09 UTC

1 00058U 60013A   26257.38144500  .00000103  00000-0  22909-4 0  9990
2 00058  28.3290  47.1406 0164886 226.4154 132.2598 13.46432724246095

AllMySatでCOURIER 1Bをリアルタイム追跡

Download on the App Store